[[{"header":{"parameterUnit":"m.s-1","parameterCategory":1,"la1":30.2991,"la2":30.254,"lo1":-89.0895,"lo2":-89.0444,"dy":0.0017,"dx":0.0017,"nx":28,"ny":28,"refTime":"2023-10-15T21:00:00:Z","depth":0,"parameterNumber":2,"parameterNumberName":"U-component_of_WINDS"},"data":[0,0,0,0,0,0,0,0,0,0,0,0,0,0,0,0,0,0,0,0,0,0,0,0,0,0,0,0,0,0,0,0,0,0,0,0,0,0,0,0,0,0,0,0,0,0,0,0,0,0,0,0,0,0,0,0,0,0,3.0133,3.0133,0,3.0156,3.0156,3.0157,3.0128,3.0127,3.0126,3.0125,3.0149,3.0151,3.0153,0,0,0,0,0,0,0,0,0,0,0,0,0,3.0065,3.0066,3.0133,3.0133,3.0133,3.0156,3.0156,3.0157,3.0128,3.0127,3.0126,3.0125,3.0149,3.0151,3.0153,0,0,0,0,0,0,0,0,0,0,0,0,0,3.0092,3.0066,3.0133,3.0122,3.0121,3.0156,3.0156,3.0157,3.0129,3.0127,3.0126,3.0124,3.0148,3.0151,3.0153,3.02,0,0,3.0161,3.0162,0,0,0,0,0,0,0,0,3.009,3.0094,3.0123,3.0123,3.0122,3.0138,3.0141,3.0171,3.0129,3.0126,3.0125,3.0123,3.0147,3.0149,3.0157,3.0201,3.0202,3.0161,3.0162,3.0163,3.0164,0,0,0,0,0,0,0,3.0088,3.0093,3.0142,3.0124,3.0123,3.0116,3.0118,3.0147,3.0145,3.0126,3.0124,3.0127,3.0146,3.0155,3.0158,3.0202,3.0161,3.0163,3.0164,3.0165,3.0287,3.0289,0,0,0,0,0,0,3.0088,3.0092,3.0141,3.0143,3.0102,3.0119,3.0121,3.0134,3.0145,3.0145,3.0129,3.0126,3.0152,3.0155,3.0158,3.0215,3.0163,3.0166,3.0167,3.0285,3.0288,3.0289,0,0,0,0,0,0,3.0086,3.0092,3.014,3.0117,3.0122,3.0122,3.0137,3.0136,3.0144,3.0146,3.0146,3.0138,3.015,3.0155,3.019,3.0215,3.0167,3.0169,3.0283,3.0286,3.0288,3.0327,0,0,0,0,0,0,3.0084,3.0092,3.0109,3.0117,3.0124,3.0171,3.0138,3.0137,3.0148,3.0145,3.0155,3.0155,3.0149,3.0187,3.0192,3.0217,3.0171,3.0281,3.0285,3.0288,3.0323,3.0331,3.0337,0,0,0,0,0,3.0082,3.0119,3.011,3.0116,3.0145,3.0173,3.0176,3.0169,3.0151,3.0168,3.017,3.0155,3.0211,3.019,3.0197,3.0223,3.0279,3.0284,3.0287,3.032,3.0329,3.0336,0,0,0,0,0,0,3.0113,3.012,3.011,3.0151,3.0161,3.0168,3.019,3.0178,3.0195,3.0191,3.0182,3.0184,3.0222,3.0226,3.0202,3.0269,3.0242,3.0248,3.0265,3.0274,3.028,3.0278,3.0173,0,0,0,0,0,3.0125,3.0147,3.0151,3.0186,3.0192,3.019,3.0202,3.0196,3.0207,3.0211,3.0215,3.0226,3.0247,3.026,3.0279,3.0324,3.0326,3.0345,3.0352,3.0357,3.0362,3.0388,3.0396,3.0303,3.0303,3.0302,0,0,3.0149,3.0155,3.0169,3.0193,3.02,3.0224,3.0194,3.0219,3.0237,3.0215,3.0248,3.0252,3.0264,3.0305,3.0323,3.0309,3.0389,3.0362,3.0367,3.0369,3.0393,3.0401,3.0409,3.0305,3.0305,3.0304,0,0,3.0205,3.0212,3.0242,3.0251,3.0263,3.0262,3.0269,3.0278,3.028,3.0313,3.0298,3.0318,3.0353,3.0363,3.0373,3.0434,3.0421,3.0441,3.0475,3.05,3.0507,3.0514,3.0537,3.0545,3.0446,3.0446,3.0446,0,3.0234,3.0267,3.0259,3.0286,3.0298,3.0279,3.0311,3.0319,3.0337,3.0346,3.033,3.0375,3.0382,3.0425,3.044,3.0448,3.0457,3.0439,3.0507,3.0513,3.0519,3.0541,3.055,3.0448,3.0448,3.0447,3.0447,0,3.0302,3.0326,3.035,3.0368,3.0382,3.0411,3.0408,3.0423,3.0416,3.0417,3.0452,3.046,3.048,3.049,3.0483,3.0533,3.0524,3.0508,3.0481,3.0531,3.0551,3.0559,3.0451,3.045,3.045,3.0449,0,0,3.0378,3.0392,3.0401,3.0409,3.0422,3.0441,3.047,3.049,3.0504,3.0517,3.0542,3.0573,3.0558,3.0569,3.0564,3.0585,3.0635,3.0567,3.0567,3.058,3.0691,3.0704,3.0713,3.0627,3.0628,3.0629,3.0691,0,3.0434,3.0484,3.0478,3.0526,3.0549,3.0533,3.0558,3.0569,3.0571,3.0591,3.0593,3.0615,3.0594,3.0601,3.0622,3.0625,3.0657,3.062,3.065,3.0651,3.0647,3.0724,3.0737,3.0794,3.0698,3.07,3.0701,0,3.0507,3.0523,3.0573,3.0584,3.0593,3.0616,3.0635,3.0654,3.0667,3.0667,3.068,3.0671,3.0701,3.0673,3.0715,3.069,3.0702,3.0705,3.0707,3.071,3.0679,3.0729,3.0812,3.0821,3.0713,3.0712,3.0711,0,3.0558,3.0592,3.0627,3.0635,3.0648,3.0665,3.0671,3.0682,3.0695,3.0712,3.0721,3.0741,3.0752,3.0769,3.0766,3.0746,3.0809,3.078,3.081,3.081,3.0824,3.0823,3.091,3.0831,3.0831,3.0831,3.0831,0,3.0622,3.0653,3.065,3.0672,3.0707,3.0701,3.0736,3.074,3.0751,3.0773,3.0761,3.0782,3.0777,3.0798,3.0796,3.0832,3.0837,3.0838,3.0837,3.0839,3.0839,3.0847,3.0843,3.0833,3.0833,3.0832,3.0832,0,3.0684,3.0683,3.0721,3.073,3.0734,3.0759,3.0768,3.0789,3.079,3.0819,3.0825,3.0827,3.0852,3.0851,3.0879,3.0878,3.0922,3.0916,3.0918,3.0917,3.0946,3.0944,3.1042,3.1055,3.0967,3.0968,3.0969,0,3.0725,3.0749,3.0762,3.0776,3.0784,3.0807,3.082,3.0816,3.0831,3.0848,3.0867,3.0891,3.0909,3.095,3.0955,3.0977,3.0972,3.1005,3.0975,3.0977,3.0973,3.0972,3.0975,3.101,3.1011,3.1012,3.1013,0,3.0798,3.0797,3.0817,3.0838,3.0855,3.087,3.0885,3.0898,3.0895,3.0912,3.0938,3.0952,3.0982,3.1006,3.1027,3.1034,3.1024,3.1022,3.103,3.1033,3.1033,3.1034,3.0934,3.102,3.1019,3.1019,3.1018,3.1018,3.0852,3.0873,3.0885,3.0909,3.0919,3.0934,3.0954,3.0958,3.0979,3.1003,3.0999,3.1028,3.1041,3.1069,3.1078,3.1101,3.1089,3.1101,3.1104,3.1107,3.1111,3.103,3.1105,3.1105,3.1105,3.1104,3.1104,0,3.0925,3.0932,3.0954,3.0975,3.0994,3.0982,3.0998,3.1015,3.104,3.1054,3.1073,3.1103,3.1127,3.1134,3.1157,3.1174,3.117,3.118,3.1179,3.1181,3.112,3.111,3.1184,3.1184,3.1184,3.1184,3.1184,3.1184,3.0965,3.1,3.1001,3.1042,3.1049,3.1078,3.1088,3.1102,3.1112,3.1147,3.1167,3.1171,3.1182,3.1206,3.1228,3.123,3.1239,3.1252,3.1251,3.1193,3.1186,3.1178,3.1169,3.1254,3.1254,3.1311,3.1312,3.1312]},{"header":{"parameterUnit":"m.s-1","parameterCategory":1,"la1":30.2991,"la2":30.254,"lo1":-89.0895,"lo2":-89.0444,"dy":0.0017,"dx":0.0017,"nx":28,"ny":28,"refTime":"2023-10-15T21:00:00:Z","depth":0,"parameterNumber":3,"parameterNumberName":"V-component_of_WINDS"},"data":[0,0,0,0,0,0,0,0,0,0,0,0,0,0,0,0,0,0,0,0,0,0,0,0,0,0,0,0,0,0,0,0,0,0,0,0,0,0,0,0,0,0,0,0,0,0,0,0,0,0,0,0,0,0,0,0,0,0,-6.7546,-6.7547,0,-6.7644,-6.7645,-6.7646,-6.7614,-6.7612,-6.761,-6.7608,-6.7703,-6.7708,-6.7712,0,0,0,0,0,0,0,0,0,0,0,0,0,-6.7327,-6.7331,-6.7545,-6.7547,-6.7548,-6.7644,-6.7645,-6.7646,-6.7615,-6.7612,-6.761,-6.7607,-6.7702,-6.7707,-6.7713,0,0,0,0,0,0,0,0,0,0,0,0,0,-6.7423,-6.7332,-6.7545,-6.7544,-6.7545,-6.7643,-6.7645,-6.7647,-6.7615,-6.7612,-6.7609,-6.7606,-6.77,-6.7707,-6.7713,-6.7818,0,0,-6.7734,-6.7737,0,0,0,0,0,0,0,0,-6.7417,-6.7431,-6.7543,-6.7544,-6.7545,-6.7614,-6.7603,-6.7704,-6.7616,-6.7588,-6.7608,-6.7605,-6.7676,-6.7684,-6.7709,-6.7822,-6.7826,-6.7735,-6.7739,-6.7741,-6.7743,0,0,0,0,0,0,0,-6.7411,-6.7426,-6.7584,-6.7544,-6.7546,-6.7537,-6.7547,-6.7622,-6.7648,-6.7591,-6.7589,-6.7601,-6.7676,-6.7703,-6.7711,-6.7828,-6.7734,-6.774,-6.7744,-6.7747,-6.8033,-6.8036,0,0,0,0,0,0,-6.7404,-6.7421,-6.7581,-6.7587,-6.7473,-6.7544,-6.7555,-6.7595,-6.7647,-6.7653,-6.7603,-6.7599,-6.7693,-6.7704,-6.7715,-6.7842,-6.7741,-6.7748,-6.7752,-6.8029,-6.8033,-6.8037,0,0,0,0,0,0,-6.7399,-6.7419,-6.7577,-6.7504,-6.7523,-6.7551,-6.7596,-6.7598,-6.7626,-6.7657,-6.7661,-6.7627,-6.7691,-6.7705,-6.7793,-6.7844,-6.7751,-6.7757,-6.8025,-6.803,-6.8035,-6.8096,0,0,0,0,0,0,-6.7393,-6.7417,-6.7458,-6.7505,-6.7527,-6.7655,-6.7599,-6.7603,-6.7638,-6.7633,-6.768,-6.7685,-6.769,-6.7783,-6.78,-6.7852,-6.7762,-6.802,-6.8027,-6.8034,-6.8089,-6.8102,-6.8114,0,0,0,0,0,-6.7386,-6.7469,-6.746,-6.7479,-6.7579,-6.7658,-6.7671,-6.7676,-6.7642,-6.7683,-6.7704,-6.7683,-6.7836,-6.7793,-6.7811,-6.7866,-6.8017,-6.8025,-6.8033,-6.8084,-6.81,-6.8113,0,0,0,0,0,0,-6.7424,-6.7475,-6.7466,-6.7567,-6.7609,-6.7653,-6.7704,-6.7693,-6.7744,-6.7737,-6.774,-6.775,-6.7841,-6.7862,-6.7813,-6.797,-6.7921,-6.7933,-6.7954,-6.7969,-6.7981,-6.7974,-6.7768,0,0,0,0,0,-6.7446,-6.7507,-6.7547,-6.7633,-6.7655,-6.7676,-6.7711,-6.7712,-6.7754,-6.7771,-6.7798,-6.7839,-6.7896,-6.7934,-6.7988,-6.8092,-6.8102,-6.8139,-6.8151,-6.8161,-6.8171,-6.8229,-6.8247,-6.8063,-6.8063,-6.8063,0,0,-6.7488,-6.7524,-6.7562,-6.7642,-6.7674,-6.7737,-6.7691,-6.7759,-6.7806,-6.7781,-6.7867,-6.7888,-6.7933,-6.8031,-6.8074,-6.8051,-6.8224,-6.8171,-6.8179,-6.8184,-6.8239,-6.8257,-6.8272,-6.8069,-6.8068,-6.8067,0,0,-6.7599,-6.7632,-6.7708,-6.7742,-6.7793,-6.7807,-6.7826,-6.7872,-6.7886,-6.7972,-6.7956,-6.801,-6.8109,-6.8143,-6.8173,-6.8299,-6.8283,-6.8317,-6.838,-6.8437,-6.8451,-6.8464,-6.851,-6.8526,-6.8327,-6.8327,-6.8327,0,-6.7645,-6.7741,-6.7748,-6.7819,-6.7854,-6.7838,-6.7915,-6.7947,-6.8012,-6.8037,-6.801,-6.8135,-6.8164,-6.8269,-6.8301,-6.8325,-6.8346,-6.8311,-6.8449,-6.8462,-6.8474,-6.8518,-6.8535,-6.8331,-6.833,-6.833,-6.833,0,-6.7796,-6.7863,-6.7918,-6.7985,-6.8026,-6.8099,-6.8117,-6.8158,-6.8156,-6.8173,-6.8262,-6.8297,-6.8359,-6.8384,-6.8381,-6.849,-6.8474,-6.8448,-6.8399,-6.8495,-6.8537,-6.8553,-6.8336,-6.8335,-6.8334,-6.8333,0,0,-6.7932,-6.8004,-6.8024,-6.8055,-6.8111,-6.8162,-6.8235,-6.8298,-6.8334,-6.838,-6.8441,-6.8526,-6.8503,-6.8537,-6.8538,-6.8588,-6.8688,-6.8556,-6.8558,-6.858,-6.8811,-6.883,-6.8849,-6.8677,-6.8681,-6.8683,-6.8807,0,-6.8048,-6.8178,-6.8188,-6.8304,-6.8367,-6.8353,-6.8416,-6.8457,-6.8475,-6.8529,-6.8548,-6.8609,-6.8574,-6.8595,-6.8644,-6.8665,-6.8734,-6.8656,-6.8733,-6.8736,-6.8723,-6.8871,-6.8891,-6.9006,-6.8823,-6.8826,-6.8828,0,-6.82,-6.8254,-6.8378,-6.8428,-6.8454,-6.8511,-6.8571,-6.8624,-6.867,-6.8679,-6.8719,-6.8714,-6.8788,-6.8737,-6.8839,-6.8786,-6.8818,-6.8834,-6.8838,-6.8846,-6.8788,-6.8883,-6.9043,-6.906,-6.8853,-6.8851,-6.8849,0,-6.8289,-6.8392,-6.848,-6.8507,-6.8566,-6.8607,-6.8633,-6.8677,-6.8715,-6.8766,-6.8791,-6.885,-6.8882,-6.8927,-6.8938,-6.8899,-6.904,-6.8989,-6.905,-6.905,-6.908,-6.9078,-6.9248,-6.91,-6.91,-6.91,-6.9099,0,-6.8418,-6.8494,-6.8521,-6.8575,-6.8661,-6.8671,-6.8755,-6.8778,-6.8817,-6.8875,-6.8866,-6.892,-6.8931,-6.8987,-6.8996,-6.908,-6.9094,-6.9103,-6.9105,-6.9105,-6.9103,-6.9125,-6.9118,-6.9104,-6.9103,-6.9102,-6.9101,0,-6.853,-6.8552,-6.8647,-6.8697,-6.8711,-6.8772,-6.8814,-6.8866,-6.8884,-6.8957,-6.8975,-6.9002,-6.9068,-6.9084,-6.9161,-6.9167,-6.9267,-6.926,-6.9252,-6.9252,-6.9312,-6.9307,-6.9503,-6.9529,-6.9363,-6.9365,-6.9366,0,-6.8611,-6.8671,-6.8728,-6.8767,-6.8797,-6.8859,-6.8899,-6.8911,-6.8953,-6.9011,-6.9056,-6.9122,-6.9175,-6.9281,-6.9307,-6.9367,-6.9362,-6.9426,-6.937,-6.9369,-6.9364,-6.936,-6.9367,-6.9437,-6.9439,-6.944,-6.9441,0,-6.8753,-6.8762,-6.882,-6.8884,-6.8932,-6.8982,-6.9029,-6.9062,-6.908,-6.9127,-6.9196,-6.9238,-6.9319,-6.9384,-6.9445,-6.947,-6.9459,-6.9459,-6.9476,-6.9477,-6.947,-6.9476,-6.9282,-6.9454,-6.9453,-6.9452,-6.9451,-6.9451,-6.8853,-6.8906,-6.8956,-6.9022,-6.9059,-6.9105,-6.9157,-6.9182,-6.9241,-6.9309,-6.9312,-6.9388,-6.9433,-6.9514,-6.9544,-6.9602,-6.9582,-6.9607,-6.9613,-6.9619,-6.9625,-6.9461,-6.9613,-6.9612,-6.9612,-6.9612,-6.9612,0,-6.8995,-6.9027,-6.9088,-6.9157,-6.9209,-6.9196,-6.9249,-6.9293,-6.936,-6.9405,-6.9458,-6.9538,-6.9602,-6.9634,-6.9697,-6.9738,-6.9734,-6.9754,-6.9751,-6.9758,-6.9639,-6.9618,-6.9756,-6.9756,-6.9756,-6.9756,-6.9756,-6.9756,-6.9076,-6.9165,-6.9179,-6.9287,-6.9318,-6.9394,-6.9425,-6.9467,-6.9503,-6.9593,-6.9647,-6.9669,-6.9708,-6.9775,-6.9833,-6.984,-6.9864,-6.9887,-6.9892,-6.978,-6.9766,-6.9752,-6.9732,-6.9892,-6.9892,-7.0006,-7.0007,-7.0008]}]]